Portland, ME

12:34 PM EDT on June 23, 2017 (GMT -0400)
Portland International

Weather History for KPWM - February, 2014

Change the Weather History Date:

Sunday, February 2, 2014

  Actual Average Record
Temperature  
Mean Temperature 36 °F 23 °F  
Max Temperature 42 °F 32 °F 48 °F (1981)
Min Temperature 30 °F 14 °F -22 °F (1961)
Degree Days  
Heating Degree Days 29 42  
Month to date heating degree days 63 84  
Since 1 July heating degree days 4107 4020  
Cooling Degree Days 0 0  
Month to date cooling degree days 0 0  
Year to date cooling degree days 0 0  
Moisture  
Dew Point 31 °F    
Average Humidity 81    
Maximum Humidity 92    
Minimum Humidity 70    
Precipitation  
Precipitation 0.01 in 0.11 in 1.90 in (1902)
Month to date precipitation 0.01 0.22  
Year to date precipitation 4.06 3.60  
Snow  
Snow 0.00 in 0.50 in 13.70 in (1911)
Month to date snowfall 0.0 1.0  
Since 1 July snowfall 44.3 35.3  
Snow Depth 2.00 in    
Sea Level Pressure  
Sea Level Pressure 29.92 in    
Wind  
Wind Speed 4 mph (WSW)    
Max Wind Speed 13 mph    
Max Gust Speed 18 mph    
Visibility 9 miles    
Events Rain    
T = Trace of Precipitation, MM = Missing Value Source: NWS Daily Summary

Daily Weather History Graph

Daily Weather History Graph

Search for Another Location

Airport or City:

Trip Planner

Search our weather history database for the weather conditions in past years. The results will help you decide how hot, cold, wet, or windy it might be!

Date:

Astronomy

Feb. 02, 2014 Rise Set
Actual Time 6:56 AM EST 4:53 PM EST
Civil Twilight 6:26 AM EST 5:24 PM EST
Nautical Twilight 5:52 AM EST 5:58 PM EST
Astronomical Twilight 5:18 AM EST 6:32 PM EST
Moon 8:13 AM EST (2/2) 8:42 PM EST (2/2)
Length of Visible Light 10h 57m
Length of Day
9h 57m
Waxing Crescent, 11% of the Moon is Illuminated
Feb 2
Waxing Crescent
Feb 6
First Quarter
Feb 14
Full
Feb 22
Last Quarter
Mar 1
New

Hourly Weather History & Observations

Time (EST) Temp. Windchill Dew Point Humidity Pressure Visibility Wind Dir Wind Speed Gust Speed Precip Events Conditions
12:51 AM 36.0 °F 28.0 °F 27.0 °F 70% 29.99 in 10.0 mi SSW 11.5 mph 17.3 mph N/A   Clear
1:51 AM 36.0 °F 31.1 °F 28.0 °F 73% 29.98 in 10.0 mi SW 5.8 mph - N/A   Mostly Cloudy
2:51 AM 36.0 °F 31.1 °F 28.9 °F 76% 29.94 in 10.0 mi SSW 5.8 mph - N/A   Overcast
3:00 AM 36.0 °F 30.3 °F 28.9 °F 76% 29.94 in 10.0 mi SSW 6.9 mph - N/A   Overcast
3:51 AM 36.0 °F 32.1 °F 30.0 °F 79% 29.90 in 10.0 mi South 4.6 mph - N/A   Overcast
4:51 AM 35.1 °F - 30.0 °F 82% 29.89 in 10.0 mi Calm Calm - N/A   Overcast
5:51 AM 35.1 °F 29.3 °F 30.0 °F 82% 29.87 in 10.0 mi SSW 6.9 mph - N/A   Overcast
6:51 AM 35.1 °F 29.3 °F 30.0 °F 82% 29.86 in 10.0 mi SSW 6.9 mph - N/A   Overcast
7:51 AM 35.1 °F 29.3 °F 30.9 °F 85% 29.86 in 9.0 mi SW 6.9 mph - N/A   Overcast
8:51 AM 36.0 °F 30.3 °F 32.0 °F 86% 29.86 in 10.0 mi SW 6.9 mph - N/A   Mostly Cloudy
9:51 AM 37.0 °F 34.5 °F 32.0 °F 82% 29.88 in 10.0 mi SW 3.5 mph - N/A   Mostly Cloudy
10:51 AM 37.9 °F 32.1 °F 32.0 °F 79% 29.87 in 10.0 mi West 8.1 mph - N/A   Overcast
11:51 AM 39.9 °F 35.1 °F 32.0 °F 73% 29.85 in 10.0 mi West 6.9 mph - N/A   Overcast
12:51 PM 41.0 °F 36.4 °F 32.0 °F 70% 29.87 in 10.0 mi WNW 6.9 mph - N/A   Overcast
1:51 PM 41.0 °F 39.0 °F 32.0 °F 70% 29.87 in 10.0 mi WNW 3.5 mph - N/A   Overcast
2:51 PM 39.0 °F 36.8 °F 34.0 °F 82% 29.85 in 7.0 mi WNW 3.5 mph - 0.01 in Rain Light Rain
3:51 PM 37.0 °F - 34.0 °F 89% 29.91 in 6.0 mi Calm Calm - 0.00 in   Overcast
4:51 PM 37.0 °F - 34.0 °F 89% 29.92 in 7.0 mi Calm Calm - N/A   Overcast
5:51 PM 35.1 °F - 34.0 °F 96% 29.92 in 5.0 mi Calm Calm - N/A   Overcast
6:51 PM 36.0 °F 33.3 °F 34.0 °F 93% 29.95 in 10.0 mi WNW 3.5 mph - N/A   Overcast
7:51 PM 37.0 °F - 34.0 °F 89% 29.98 in 10.0 mi Calm Calm - N/A   Overcast
8:51 PM 36.0 °F - 32.0 °F 86% 29.98 in 9.0 mi Calm Calm - N/A   Overcast
9:51 PM 34.0 °F 29.8 °F 30.0 °F 85% 30.00 in 10.0 mi West 4.6 mph - N/A   Partly Cloudy
10:51 PM 33.1 °F - 30.0 °F 89% 30.03 in 9.0 mi Calm Calm - N/A   Clear
11:51 PM 30.0 °F - 28.9 °F 96% 30.04 in 7.0 mi Calm Calm - N/A   Mostly Cloudy